This demonstration page uses our WeatherBlox Daily Observations layout. Learn more.

Left ArrowRight Arrow

34.16533, -84.80231

Hourly Observations for August 17, 2020

Temp ( °F °C ) Dew Point ( °F °C ) Humidity (%) Winds ( mph kmh ) Pressure ( in mb ) Visibility ( mi km ) Precip ( " mm )
12:53 am 00:53 Clear 72 22.2 70 21.1 94 94 Calm 29.94 1014 8 13 0.00 0.00
1:53 am 01:53 Clear 73 22.8 70 21.1 90 90 Calm 29.94 1014 7 11 0.00 0.00
2:53 am 02:53 Clear 72 22.2 69 20.6 91 91 Calm 29.94 1014 7 11 0.00 0.00
3:53 am 03:53 Clear 72 22.2 69 20.6 91 91 Calm 29.94 1014 7 11 0.00 0.00
4:53 am 04:53 Clear 72 22.2 69 20.6 91 91 Calm 29.96 1014 7 11 0.00 0.00
5:53 am 05:53 Clear 72 22.2 69 20.6 91 91 Calm 29.96 1015 7 11 0.00 0.00
6:53 am 06:53 Mostly Cloudy 72 22.2 69 20.6 91 91 Calm 29.97 1015 7 11 0.00 0.00
7:53 am 07:53 Cloudy with Mist and Fog 73 22.8 70 21.1 90 90 Calm 29.98 1015 6 10 0.00 0.00
8:53 am 08:53 Partly Cloudy 74 23.3 69 20.6 85 85 N 5 7 29.99 1016 7 11 0.00 0.00
9:53 am 09:53 Partly Cloudy 78 25.6 70 21.1 76 76 Calm 30.00 1016 9 14 0.00 0.00
10:53 am 10:53 Mostly Cloudy 81 27.2 72 22.2 74 74 VRB 3 6 30.01 1016 10 16 0.00 0.00
11:53 am 11:53 Mostly Sunny 85 29.4 72 22.2 65 65 N 6 9 30.01 1016 10 16 0.00 0.00
12:53 pm 12:53 Sunny 86 30 71 21.7 61 61 VRB 3 6 29.99 1016 10 16 0.00 0.00
1:53 pm 13:53 Partly Cloudy 87 30.6 70 21.1 57 57 N 7 11 29.98 1015 10 16 0.00 0.00
2:53 pm 14:53 Sunny 89 31.7 68 20 50 50 N 8 13 29.96 1015 10 16 0.00 0.00
3:53 pm 15:53 Sunny 90 32.2 68 20 48 48 N 8 13 29.94 1014 10 16 0.00 0.00
4:53 pm 16:53 Sunny 89 31.7 67 19.4 48 48 N 9 15 29.93 1014 10 16 0.00 0.00
5:53 pm 17:53 Sunny 90 32.2 64 17.8 42 42 N 3 6 29.93 1014 10 16 0.00 0.00
6:53 pm 18:53 Sunny 87 30.6 62 16.7 43 43 NNW 6 9 29.92 1013 10 16 0.00 0.00
7:53 pm 19:53 Sunny 84 28.9 63 17.2 49 49 N 3 6 29.93 1013 10 16 0.00 0.00
8:53 pm 20:53 Clear 73 22.8 67 19.4 81 81 Calm 29.94 1014 10 16 0.00 0.00
9:53 pm 21:53 Clear 71 21.7 65 18.3 81 81 Calm 29.96 1015 10 16 0.00 0.00
10:53 pm 22:53 Clear 70 21.1 64 17.8 82 82 Calm 29.97 1015 10 16 0.00 0.00
11:53 pm 23:53 Clear 69 20.6 64 17.8 84 84 Calm 29.96 1015 10 16 0.00 0.00

Powered by AerisWeather